EDT,Max TemperatureF,Mean TemperatureF,Min TemperatureF,Max Dew PointF,MeanDew PointF,Min DewpointF,Max Humidity, Mean Humidity, Min Humidity, Max Sea Level PressureIn, Mean Sea Level PressureIn, Min Sea Level PressureIn, Max VisibilityMiles, Mean VisibilityMiles, Min VisibilityMiles, Max Wind SpeedMPH, Mean Wind SpeedMPH, Max Gust SpeedMPH,PrecipitationIn, CloudCover, Events, WindDirDegrees
2012-9-1,86,80,75,78,75,72,96,83,63,30.20,30.15,30.09,10,9,5,9,3,,0.00,1,,91
2012-9-2,88,82,75,76,73,69,94,78,57,30.11,30.06,30.00,10,10,10,12,4,,0.00,1,,163
2012-9-3,88,80,72,73,71,69,91,77,57,30.08,30.04,29.99,10,10,10,16,6,,0.00,0,,184
2012-9-4,89,80,73,76,73,70,91,77,61,30.04,30.00,29.94,10,10,10,16,6,,0.00,1,,174
2012-9-5,87,80,73,76,73,70,91,79,67,30.00,29.97,29.93,10,10,10,14,6,,0.00,2,,158
2012-9-6,87,80,73,76,73,70,96,82,66,30.03,29.99,29.94,10,9,1,18,7,28,0.81,4,Rain-Thunderstorm,177
2012-9-7,88,80,73,76,74,72,97,86,65,30.00,29.96,29.93,10,7,1,20,7,,1.10,4,Rain-Thunderstorm,192
2012-9-8,90,81,73,77,74,72,97,80,59,29.95,29.90,29.84,10,9,2,15,6,22,0.01,2,Rain-Thunderstorm,210
2012-9-9,87,82,77,77,75,72,94,84,66,29.95,29.87,29.81,10,8,2,14,8,21,0.24,5,Rain-Thunderstorm,243
2012-9-10,84,80,75,75,70,65,97,73,56,30.08,30.01,29.93,10,10,10,15,10,,0.00,3,,25
2012-9-11,84,82,79,69,66,63,72,60,48,30.19,30.14,30.07,10,10,10,17,14,,0.00,1,,72
2012-9-12,86,82,78,72,70,68,81,68,58,30.21,30.17,30.12,10,10,6,21,14,24,0.00,3,,71
2012-9-13,84,80,75,73,71,70,88,76,67,30.18,30.13,30.10,10,10,10,21,13,30,0.00,4,,54
2012-9-14,84,78,73,75,72,70,94,83,72,30.13,30.11,30.07,10,9,2,17,9,22,0.66,4,Rain,48
2012-9-15,84,80,75,74,73,71,85,76,69,30.13,30.09,30.07,10,10,10,16,10,21,0.00,2,,55
2012-9-16,86,80,73,74,72,71,94,79,63,30.11,30.07,30.02,10,10,10,13,5,,0.00,1,,110
2012-9-17,87,80,73,74,72,70,91,77,65,30.06,30.00,29.93,10,10,10,20,6,25,0.00,1,,145
2012-9-18,84,78,73,75,73,70,94,89,74,29.95,29.91,29.85,10,7,1,21,10,31,0.83,4,Rain-Thunderstorm,213
2012-9-19,84,78,73,75,73,71,94,83,69,30.06,29.98,29.90,10,10,6,12,6,,0.02,4,Rain,170
2012-9-20,84,78,73,74,72,68,94,82,69,30.07,30.03,30.00,10,9,5,17,7,,0.07,4,Rain-Thunderstorm,45
2012-9-21,84,76,71,74,73,70,100,85,69,30.05,30.02,29.98,10,10,3,15,6,,0.02,4,Rain,41
2012-9-22,84,78,73,74,72,71,93,83,67,30.06,30.02,29.99,10,10,10,14,4,,0.00,3,Rain,11
2012-9-23,88,79,71,73,68,59,96,75,51,30.10,30.06,30.02,10,10,10,13,6,,0.00,0,,314
2012-9-24,82,73,64,70,60,53,74,60,37,30.13,30.09,30.06,10,10,10,17,7,24,0.00,1,,2
2012-9-25,84,81,78,70,68,66,74,65,56,30.16,30.12,30.06,10,10,10,21,16,20,0.00,5,,57
2012-9-26,86,80,77,75,73,67,88,77,67,30.16,30.12,30.08,10,10,10,13,10,,0.00,1,,79
2012-9-27,84,80,75,76,73,69,94,79,67,30.16,30.11,30.07,10,10,10,18,8,24,0.00,2,,61
2012-9-28,84,78,73,75,73,71,94,82,70,30.10,30.05,30.01,10,10,7,18,7,21,0.00,4,,39
2012-9-29,82,77,72,75,72,70,97,84,67,30.02,29.97,29.89,10,10,10,10,3,,0.00,1,,55
2012-9-30,87,80,73,76,73,71,96,85,67,29.92,29.84,29.78,10,9,2,18,7,32,0.75,3,Rain-Thunderstorm,175